{"data":{"norad_id":63043,"epoch":"2026-09-21T19:57:26.575776Z","epoch_age_seconds":50549,"freshness":"FRESH","line1":"1 63043U 25034Q   26264.83155759  .00010434  00000+0  31956-3 0  9991","line2":"2 63043  53.1573  75.8346 0001110  95.0404 265.0725 15.34395544 88994","mean_motion":15.34395544,"eccentricity":0.000111,"inclination_deg":53.1573,"raan_deg":75.8346,"arg_perigee_deg":95.0404,"mean_anomaly_deg":265.0725,"bstar":0.00031956,"rev_number":8899,"period_min":93.848030622279,"perigee_km":461.95714967345,"apogee_km":463.47581914698,"semimajor_km":6840.8534844102,"source":"CELESTRAK","updated_at":"2026-09-22T09:00:49.746918Z"}}